Terminal Aerodrome Forecast
Issued by NWS

Home | Current Version | Previous Version | Text Only | Print | Product List | Glossary On
Versions: 1 2 3 4 5 6 7 8 9 10 11 12 13 14 15 16 17 18 19 20 21 22 23 24 25 26 27 28 29 30 31 32 33 34 35 36 37 38 39 40 41 42 43 44 45 46 47 48 49 50
000
FTUS44 KHGX 221927 AAC
TAFIAH
TAF AMD
KIAH 221927Z 2219/2324 22010G17KT P6SM SCT027 BKN250
     FM230300 VRB05KT P6SM OVC020
     FM230900 01004KT P6SM BKN009 BKN020
     FM231500 35009KT P6SM VCSH SCT009 OVC015=

USA.gov is the U.S. government's official web portal to all federal, state and local government web resources and services.